Time,TemperatureF,DewpointF,PressureIn,WindDirection,WindDirectionDegrees,WindSpeedMPH,WindSpeedGustMPH,Humidity,HourlyPrecipIn,Conditions,Clouds,dailyrainin,SolarRadiationWatts/m^2,SoftwareType,DateUTC
2013-07-12 00:02:00,86.0,62.0,-100.00,South,169,10.0,16.0,44,0.00,,,0.00,0.000000,,2013-07-12 05:02:00,
2013-07-12 00:11:00,86.0,62.0,-100.00,South,169,10.0,16.0,44,0.00,,,0.00,0.000000,,2013-07-12 05:11:00,
2013-07-12 00:22:00,86.0,62.0,-100.00,South,169,10.0,16.0,44,0.00,,,0.00,0.000000,,2013-07-12 05:22:00,
2013-07-12 00:32:00,86.0,62.0,-100.00,South,169,10.0,16.0,44,0.00,,,0.00,0.000000,,2013-07-12 05:32:00,
2013-07-12 01:01:00,83.0,64.0,-100.00,South,182,10.0,15.0,53,0.00,,,0.00,0.000000,,2013-07-12 06:01:00,
2013-07-12 01:11:00,83.0,64.0,-100.00,South,182,10.0,15.0,53,0.00,,,0.00,0.000000,,2013-07-12 06:11:00,
2013-07-12 01:22:00,83.0,64.0,-100.00,South,182,10.0,15.0,53,0.00,,,0.00,0.000000,,2013-07-12 06:22:00,
2013-07-12 01:33:00,83.0,64.0,-100.00,South,182,10.0,15.0,53,0.00,,,0.00,0.000000,,2013-07-12 06:33:00,
2013-07-12 02:02:00,82.0,66.0,-100.00,South,181,11.0,17.0,59,0.00,,,0.00,0.000000,,2013-07-12 07:02:00,
2013-07-12 02:12:00,82.0,66.0,-100.00,South,181,11.0,17.0,59,0.00,,,0.00,0.000000,,2013-07-12 07:12:00,
2013-07-12 02:22:00,82.0,66.0,-100.00,South,181,11.0,17.0,59,0.00,,,0.00,0.000000,,2013-07-12 07:22:00,
2013-07-12 02:32:00,82.0,66.0,-100.00,South,181,11.0,17.0,59,0.00,,,0.00,0.000000,,2013-07-12 07:32:00,
2013-07-12 03:01:00,80.0,65.0,-100.00,South,189,9.0,16.0,61,0.00,,,0.00,0.000000,,2013-07-12 08:01:00,
2013-07-12 03:11:00,80.0,65.0,-100.00,South,189,9.0,16.0,61,0.00,,,0.00,0.000000,,2013-07-12 08:11:00,
2013-07-12 03:21:00,80.0,65.0,-100.00,South,189,9.0,16.0,61,0.00,,,0.00,0.000000,,2013-07-12 08:21:00,
2013-07-12 03:32:00,80.0,65.0,-100.00,South,189,9.0,16.0,61,0.00,,,0.00,0.000000,,2013-07-12 08:32:00,
2013-07-12 04:02:00,78.0,65.0,-100.00,South,185,8.0,13.0,64,0.00,,,0.00,0.000000,,2013-07-12 09:02:00,
2013-07-12 04:12:00,78.0,65.0,-100.00,South,185,8.0,13.0,64,0.00,,,0.00,0.000000,,2013-07-12 09:12:00,
2013-07-12 04:22:00,78.0,65.0,-100.00,South,185,8.0,13.0,64,0.00,,,0.00,0.000000,,2013-07-12 09:22:00,
2013-07-12 04:32:00,78.0,65.0,-100.00,South,185,8.0,13.0,64,0.00,,,0.00,0.000000,,2013-07-12 09:32:00,
2013-07-12 05:01:00,77.0,66.0,-100.00,SSW,193,9.0,14.0,69,0.00,,,0.00,0.000000,,2013-07-12 10:01:00,
2013-07-12 05:11:00,77.0,66.0,-100.00,SSW,193,9.0,14.0,69,0.00,,,0.00,0.000000,,2013-07-12 10:11:00,
2013-07-12 05:22:00,77.0,66.0,-100.00,SSW,193,9.0,14.0,69,0.00,,,0.00,0.000000,,2013-07-12 10:22:00,
2013-07-12 05:33:00,77.0,66.0,-100.00,SSW,193,9.0,14.0,69,0.00,,,0.00,0.000000,,2013-07-12 10:33:00,
2013-07-12 06:02:00,75.0,66.0,-100.00,SSW,199,8.0,12.0,73,0.00,,,0.00,0.000000,,2013-07-12 11:02:00,
2013-07-12 06:11:00,75.0,66.0,-100.00,SSW,199,8.0,12.0,73,0.00,,,0.00,0.000000,,2013-07-12 11:11:00,
2013-07-12 06:22:00,75.0,66.0,-100.00,SSW,199,8.0,12.0,73,0.00,,,0.00,0.000000,,2013-07-12 11:22:00,
2013-07-12 06:32:00,75.0,66.0,-100.00,SSW,199,8.0,12.0,73,0.00,,,0.00,0.000000,,2013-07-12 11:32:00,
2013-07-12 07:01:00,74.0,67.0,-100.00,SW,217,6.0,11.0,78,0.00,,,0.00,0.000000,,2013-07-12 12:01:00,
2013-07-12 07:11:00,74.0,67.0,-100.00,SW,217,6.0,11.0,78,0.00,,,0.00,0.000000,,2013-07-12 12:11:00,
2013-07-12 07:22:00,74.0,67.0,-100.00,SW,217,6.0,11.0,78,0.00,,,0.00,0.000000,,2013-07-12 12:22:00,
2013-07-12 07:32:00,74.0,67.0,-100.00,SW,217,6.0,11.0,78,0.00,,,0.00,0.000000,,2013-07-12 12:32:00,
2013-07-12 08:01:00,77.0,68.0,-100.00,SW,214,6.0,8.0,73,0.00,,,0.00,56.000000,,2013-07-12 13:01:00,
2013-07-12 08:12:00,77.0,68.0,-100.00,SW,214,6.0,8.0,73,0.00,,,0.00,56.000000,,2013-07-12 13:12:00,
2013-07-12 08:22:00,77.0,68.0,-100.00,SW,214,6.0,8.0,73,0.00,,,0.00,56.000000,,2013-07-12 13:22:00,
2013-07-12 08:32:00,77.0,68.0,-100.00,SW,214,6.0,8.0,73,0.00,,,0.00,56.000000,,2013-07-12 13:32:00,
2013-07-12 09:02:00,80.0,68.0,-100.00,SSW,209,9.0,13.0,68,0.00,,,0.00,249.000000,,2013-07-12 14:02:00,
2013-07-12 09:11:00,80.0,68.0,-100.00,SSW,209,9.0,13.0,68,0.00,,,0.00,249.000000,,2013-07-12 14:11:00,
2013-07-12 09:22:00,80.0,68.0,-100.00,SSW,209,9.0,13.0,68,0.00,,,0.00,249.000000,,2013-07-12 14:22:00,
2013-07-12 09:32:00,80.0,68.0,-100.00,SSW,209,9.0,13.0,68,0.00,,,0.00,249.000000,,2013-07-12 14:32:00,
2013-07-12 10:02:00,84.0,69.0,-100.00,SSW,203,9.0,12.0,60,0.00,,,0.00,434.000000,,2013-07-12 15:02:00,
2013-07-12 10:11:00,84.0,69.0,-100.00,SSW,203,9.0,12.0,60,0.00,,,0.00,434.000000,,2013-07-12 15:11:00,
2013-07-12 10:22:00,84.0,69.0,-100.00,SSW,203,9.0,12.0,60,0.00,,,0.00,434.000000,,2013-07-12 15:22:00,
2013-07-12 10:33:00,84.0,69.0,-100.00,SSW,203,9.0,12.0,60,0.00,,,0.00,434.000000,,2013-07-12 15:33:00,
2013-07-12 11:01:00,86.0,67.0,-100.00,SSE,167,6.0,13.0,53,0.00,,,0.00,586.000000,,2013-07-12 16:01:00,
2013-07-12 11:11:00,86.0,67.0,-100.00,SSE,167,6.0,13.0,53,0.00,,,0.00,586.000000,,2013-07-12 16:11:00,
2013-07-12 11:22:00,86.0,67.0,-100.00,SSE,167,6.0,13.0,53,0.00,,,0.00,586.000000,,2013-07-12 16:22:00,
2013-07-12 11:32:00,86.0,67.0,-100.00,SSE,167,6.0,13.0,53,0.00,,,0.00,586.000000,,2013-07-12 16:32:00,
2013-07-12 12:05:00,91.0,63.0,-100.00,SSW,205,5.0,10.0,39,0.00,,,0.00,729.000000,,2013-07-12 17:05:00,
2013-07-12 12:13:00,91.0,63.0,-100.00,SSW,205,5.0,10.0,39,0.00,,,0.00,729.000000,,2013-07-12 17:13:00,
2013-07-12 12:23:00,91.0,63.0,-100.00,SSW,205,5.0,10.0,39,0.00,,,0.00,729.000000,,2013-07-12 17:23:00,
2013-07-12 13:14:00,95.0,59.0,-100.00,SE,132,7.0,13.0,30,0.00,,,0.00,839.000000,,2013-07-12 18:14:00,
2013-07-12 13:34:00,95.0,59.0,-100.00,SE,132,7.0,13.0,30,0.00,,,0.00,839.000000,,2013-07-12 18:34:00,
2013-07-12 14:04:00,96.0,59.0,-100.00,SSE,147,9.0,19.0,30,0.00,,,0.00,856.000000,,2013-07-12 19:04:00,
2013-07-12 15:13:00,95.0,59.0,-100.00,South,171,7.0,19.0,30,0.00,,,0.00,752.000000,,2013-07-12 20:13:00,
2013-07-12 15:24:00,95.0,59.0,-100.00,South,171,7.0,19.0,30,0.00,,,0.00,752.000000,,2013-07-12 20:24:00,
2013-07-12 15:33:00,95.0,59.0,-100.00,South,171,7.0,19.0,30,0.00,,,0.00,752.000000,,2013-07-12 20:33:00,
2013-07-12 16:03:00,98.0,58.0,-100.00,SE,136,7.0,18.0,27,0.00,,,0.00,722.000000,,2013-07-12 21:03:00,
2013-07-12 16:14:00,98.0,58.0,-100.00,SE,136,7.0,18.0,27,0.00,,,0.00,722.000000,,2013-07-12 21:14:00,
2013-07-12 16:25:00,98.0,58.0,-100.00,SE,136,7.0,18.0,27,0.00,,,0.00,722.000000,,2013-07-12 21:25:00,
2013-07-12 16:34:00,98.0,58.0,-100.00,SE,136,7.0,18.0,27,0.00,,,0.00,722.000000,,2013-07-12 21:34:00,
2013-07-12 17:04:00,99.0,58.0,-100.00,East,98,5.0,16.0,26,0.00,,,0.00,735.000000,,2013-07-12 22:04:00,
2013-07-12 17:33:00,99.0,58.0,-100.00,East,98,5.0,16.0,26,0.00,,,0.00,735.000000,,2013-07-12 22:33:00,
2013-07-12 18:03:00,98.0,59.0,-100.00,SE,128,9.0,19.0,28,0.00,,,0.00,497.000000,,2013-07-12 23:03:00,
2013-07-12 18:13:00,98.0,59.0,-100.00,SE,128,9.0,19.0,28,0.00,,,0.00,497.000000,,2013-07-12 23:13:00,
2013-07-12 18:24:00,98.0,59.0,-100.00,SE,128,9.0,19.0,28,0.00,,,0.00,497.000000,,2013-07-12 23:24:00,
2013-07-12 18:33:00,98.0,59.0,-100.00,SE,128,9.0,19.0,28,0.00,,,0.00,497.000000,,2013-07-12 23:33:00,
2013-07-12 19:16:00,98.0,59.0,-100.00,South,172,7.0,16.0,28,0.00,,,0.00,441.000000,,2013-07-13 00:16:00,
2013-07-12 19:25:00,98.0,59.0,-100.00,South,172,7.0,16.0,28,0.00,,,0.00,441.000000,,2013-07-13 00:25:00,
2013-07-12 19:32:00,98.0,59.0,-100.00,South,172,7.0,16.0,28,0.00,,,0.00,441.000000,,2013-07-13 00:32:00,
2013-07-12 20:03:00,96.0,59.0,-100.00,South,171,8.0,13.0,30,0.00,,,0.00,232.000000,,2013-07-13 01:03:00,
2013-07-12 20:12:00,96.0,59.0,-100.00,South,171,8.0,13.0,30,0.00,,,0.00,232.000000,,2013-07-13 01:12:00,
2013-07-12 20:24:00,96.0,59.0,-100.00,South,171,8.0,13.0,30,0.00,,,0.00,232.000000,,2013-07-13 01:24:00,
2013-07-12 20:35:00,92.0,59.0,-100.00,SSE,167,5.0,9.0,33,0.00,,,0.00,65.000000,,2013-07-13 01:35:00,
2013-07-12 21:14:00,92.0,59.0,-100.00,SSE,167,5.0,9.0,33,0.00,,,0.00,65.000000,,2013-07-13 02:14:00,
2013-07-12 21:23:00,92.0,59.0,-100.00,SSE,167,5.0,9.0,33,0.00,,,0.00,65.000000,,2013-07-13 02:23:00,
2013-07-12 21:35:00,89.0,59.0,-100.00,SSE,152,3.0,5.0,36,0.00,,,0.00,1.000000,,2013-07-13 02:35:00,
2013-07-12 22:05:00,89.0,59.0,-100.00,SSE,152,3.0,5.0,36,0.00,,,0.00,1.000000,,2013-07-13 03:05:00,
2013-07-12 22:26:00,89.0,59.0,-100.00,SSE,152,3.0,5.0,36,0.00,,,0.00,1.000000,,2013-07-13 03:26:00,
2013-07-12 23:01:00,87.0,61.0,-100.00,SSE,149,6.0,10.0,42,0.00,,,0.00,0.000000,,2013-07-13 04:01:00,
2013-07-12 23:11:00,87.0,61.0,-100.00,SSE,149,6.0,10.0,42,0.00,,,0.00,0.000000,,2013-07-13 04:11:00,
2013-07-12 23:22:00,87.0,61.0,-100.00,SSE,149,6.0,10.0,42,0.00,,,0.00,0.000000,,2013-07-13 04:22:00,
2013-07-12 23:32:00,87.0,61.0,-100.00,SSE,149,6.0,10.0,42,0.00,,,0.00,0.000000,,2013-07-13 04:32:00,